Flag for France Weather past 2 weeks in Bastia, Corsica, France

Now
68 °F

Partly sunny.


Feels Like: 68 °F
Forecast: 59 / 67 °F
Wind: 3 mph from South

Location: Bastia Airport

Current Time: Oct 21, 2014 at 7:24:33 PM

Latest Report: Oct 21, 2014 at 7:00 PM


Visibility: N/A

Pressure: 29.80 "Hg

Humidity: 83%

Dew point: 63 °F

Location of BastiaLocation

Historic Weather in Bastia — Graph

°F

Bastia temperature yesterday

Maximum temperature yesterday: 77 °F (at 1:30 PM)
Minimum temperature yesterday: 61 °F (at 2:30 AM)
Average temperature yesterday: 67 °F

Past Weeks' High & Low Weather Summary

 TemperatureHumidityPressure
High81 °F (Oct 8, 12:30 PM)94% (Oct 8, 8:00 PM)30.27 "Hg (Oct 8, 8:00 PM)
Low57 °F (Oct 7, 3:30 AM)45% (Oct 15, 12:30 PM)29.68 "Hg (Oct 15, 7:00 AM)
Average69 °F81%29.99 "Hg
* Reported Oct 6 6:00 PM — Oct 21 6:00 PM, Bastia, Weather by CustomWeather, © 2014

Note: Actual official high and low records may vary slightly from our data, if they occured in-between our weather recording intervals... More about our weather records

Advertising

Bastia weather history for previous 24 hours

 ConditionsComfort  
Time TempWeatherWind HumidityBarometerVisibility
6:00 PM
Oct 21
72 °FPartly sunny.2 mph78%29.83 "HgN/A
5:30 PM73 °FPartly sunny.2 mph74%29.83 "HgN/A
5:00 PM73 °FPartly sunny.3 mph74%29.83 "HgN/A
4:30 PM73 °FPartly sunny.6 mph69%29.86 "HgN/A
4:00 PM77 °FPartly sunny.5 mph65%29.86 "HgN/A
3:30 PM77 °FPassing clouds.3 mph61%29.89 "HgN/A
3:00 PM77 °FPassing clouds.7 mph61%29.89 "HgN/A
2:30 PM77 °FPassing clouds.8 mph65%29.89 "HgN/A
2:05 PM77 °FPassing clouds.8 mph65%29.89 "HgN/A
1:30 PM77 °FPassing clouds.8 mph61%29.92 "HgN/A
12:30 PM77 °FPassing clouds.9 mph65%29.95 "HgN/A
12:00 PM75 °FPassing clouds.8 mph65%29.95 "HgN/A
11:30 AM75 °FPassing clouds.8 mph65%29.95 "HgN/A
11:00 AM73 °FPassing clouds.8 mph69%29.95 "HgN/A
10:30 AM72 °FPassing clouds.3 mph69%29.95 "HgN/A
10:00 AM68 °FPassing clouds.3 mph73%29.95 "HgN/A
9:30 AM64 °FPassing clouds.3 mph83%29.95 "HgN/A
9:00 AM61 °FPassing clouds.3 mph94%29.95 "HgN/A
8:30 AM59 °FFog.3 mph94%29.95 "HgN/A
8:00 AM59 °FFog.3 mph88%29.95 "HgN/A
7:30 AM59 °FPassing clouds.5 mph88%29.95 "HgN/A
7:00 AM59 °FPassing clouds.3 mph94%29.95 "HgN/A
6:30 AM59 °FPassing clouds.3 mph94%29.95 "HgN/A
6:00 AM59 °FPassing clouds.5 mph94%29.98 "HgN/A
5:30 AM59 °FPassing clouds.5 mph94%29.98 "HgN/A
5:00 AM59 °FPassing clouds.3 mph94%29.98 "HgN/A
4:30 AM59 °FPassing clouds.5 mph94%30.01 "HgN/A
3:30 AM59 °FPassing clouds.5 mph94%30.04 "HgN/A
3:00 AM59 °FClear.2 mph94%30.04 "HgN/A
2:30 AM59 °FClear.No wind94%30.04 "HgN/A
2:00 AM59 °FClear.5 mph94%30.04 "HgN/A
1:30 AM61 °FClear.3 mph94%30.07 "HgN/A
1:00 AM61 °FClear.No wind88%30.07 "HgN/A
12:30 AM61 °FPassing clouds.3 mph94%30.07 "HgN/A
12:13 AM61 °FPassing clouds.1 mph94%30.07 "HgN/A
11:30 PM
Oct 20
61 °FPassing clouds.2 mph88%30.09 "HgN/A
11:00 PM61 °FPassing clouds.2 mph94%30.09 "HgN/A
10:30 PM61 °FPassing clouds.2 mph94%30.09 "HgN/A
10:00 PM63 °FPassing clouds.2 mph94%30.09 "HgN/A
9:30 PM64 °FPassing clouds.2 mph88%30.09 "HgN/A
9:00 PM64 °FPassing clouds.2 mph88%30.09 "HgN/A
8:30 PM66 °FPassing clouds.2 mph88%30.09 "HgN/A
8:00 PM68 °FPassing clouds.2 mph83%30.09 "HgN/A
7:30 PM68 °FPartly sunny.2 mph83%30.09 "HgN/A
7:00 PM70 °FPartly sunny.2 mph78%30.09 "HgN/A
Weather by CustomWeather, © 2014

See weather overviewHow to use our weather pages